Precipitable_Water
0.34 0.37 0.45 0.45 0.25 0.34 0.33 0.32 0.40 0.38 0.48 0.69 0.74 0.71 0.72 0.79 0.64 0.49 1.20 1.25 1.20 1.17 1.19 1.10 0.88 0.84 0.82 0.82 0.93 1.04 1.12 1.18 1.19 1.15 1.13 1.15 1.16 1.08 1.07 1.09 1.12 1.12 1.13 1.15 1.15 1.11 1.08 1.02 1.01
0.37 0.37 0.45 0.34 0.22 0.23 0.29 0.42 0.43 0.47 0.63 0.75 0.73 0.74 0.67 0.66 1.01 1.06 1.14 1.33 1.24 1.27 1.19 1.07 0.93 0.90 0.87 0.85 0.90 0.99 1.07 1.16 1.15 1.17 1.15 1.17 1.18 1.14 1.12 1.14 1.16 1.16 1.15 1.16 1.17 1.14 1.09 1.06 1.04
0.37 0.39 0.31 0.27 0.22 0.23 0.27 0.33 0.57 0.57 0.63 0.57 0.65 0.85 0.75 0.65 0.94 1.03 1.23 1.23 1.23 1.21 1.15 1.01 0.97 0.96 0.94 0.93 0.95 1.01 1.07 1.14 1.15 1.16 1.18 1.18 1.19 1.16 1.15 1.17 1.19 1.22 1.19 1.20 1.22 1.18 1.15 1.11 1.08
0.33 0.35 0.33 0.21 0.17 0.26 0.30 0.33 0.34 0.55 0.53 0.60 0.68 0.57 0.94 1.15 1.02 1.15 1.21 1.13 1.12 1.14 1.11 1.04 0.98 0.97 0.97 1.00 1.02 1.06 1.09 1.15 1.15 1.18 1.19 1.20 1.21 1.19 1.18 1.18 1.22 1.26 1.24 1.24 1.27 1.27 1.21 1.18 1.15
0.30 0.30 0.22 0.20 0.22 0.30 0.34 0.32 0.35 0.44 0.49 0.58 0.64 0.62 0.77 1.19 1.27 1.32 1.24 1.25 1.17 1.13 1.15 1.09 0.98 0.97 0.99 1.05 1.09 1.13 1.14 1.15 1.19 1.21 1.24 1.25 1.25 1.24 1.22 1.22 1.24 1.26 1.27 1.28 1.30 1.33 1.27 1.23 1.22
0.22 0.28 0.20 0.17 0.20 0.31 0.33 0.36 0.36 0.36 0.48 0.59 0.65 0.70 0.87 1.31 1.26 1.35 1.38 1.35 1.36 1.16 1.14 1.09 1.07 1.05 1.05 1.12 1.17 1.20 1.20 1.21 1.25 1.25 1.28 1.30 1.30 1.28 1.25 1.24 1.25 1.25 1.25 1.26 1.27 1.31 1.30 1.27 1.26
0.21 0.20 0.18 0.20 0.21 0.26 0.31 0.40 0.38 0.37 0.39 0.49 0.71 0.60 0.91 1.12 1.29 1.39 1.43 1.41 1.36 1.27 1.17 1.12 1.15 1.15 1.14 1.17 1.17 1.19 1.24 1.29 1.29 1.29 1.32 1.33 1.31 1.28 1.27 1.26 1.27 1.29 1.29 1.28 1.28 1.27 1.31 1.33 1.33
0.24 0.22 0.19 0.20 0.19 0.22 0.29 0.33 0.39 0.38 0.37 0.76 0.89 0.59 0.73 1.11 1.37 1.49 1.50 1.42 1.35 1.34 1.34 1.18 1.18 1.20 1.19 1.21 1.22 1.24 1.27 1.29 1.32 1.33 1.34 1.36 1.31 1.30 1.31 1.30 1.29 1.29 1.30 1.31 1.31 1.31 1.33 1.35 1.38
0.29 0.19 0.17 0.19 0.19 0.23 0.29 0.28 0.34 0.37 0.37 0.61 0.80 0.83 0.95 1.27 1.39 1.38 1.33 1.32 1.26 1.24 1.26 1.26 1.21 1.22 1.24 1.27 1.31 1.30 1.30 1.33 1.37 1.39 1.40 1.35 1.31 1.31 1.33 1.32 1.31 1.32 1.33 1.33 1.36 1.36 1.37 1.38 1.38
0.25 0.19 0.19 0.23 0.24 0.24 0.27 0.27 0.27 0.29 0.32 0.45 0.61 0.82 0.99 1.12 1.22 1.18 1.16 1.11 1.13 1.10 1.14 1.22 1.24 1.25 1.28 1.30 1.34 1.33 1.34 1.38 1.41 1.37 1.32 1.31 1.30 1.27 1.25 1.29 1.31 1.35 1.39 1.42 1.42 1.43 1.42 1.43 1.43
0.27 0.20 0.24 0.25 0.27 0.27 0.26 0.27 0.28 0.26 0.26 0.34 0.40 0.67 0.89 0.93 1.02 1.05 1.08 1.09 1.05 1.12 1.16 1.19 1.24 1.27 1.27 1.27 1.33 1.34 1.35 1.34 1.30 1.24 1.24 1.18 1.13 1.12 1.13 1.16 1.19 1.26 1.34 1.36 1.41 1.43 1.44 1.43 1.44
0.26 0.28 0.29 0.28 0.30 0.29 0.27 0.29 0.29 0.27 0.25 0.30 0.41 0.66 0.88 0.90 0.93 0.97 1.00 1.09 1.05 1.12 1.20 1.24 1.28 1.27 1.28 1.30 1.28 1.30 1.30 1.27 1.21 1.16 1.04 0.95 0.91 0.90 0.95 1.01 1.07 1.19 1.24 1.22 1.28 1.33 1.37 1.36 1.35
0.27 0.29 0.33 0.36 0.34 0.32 0.33 0.29 0.29 0.28 0.33 0.32 0.39 0.63 0.76 0.86 0.97 1.06 1.11 1.17 1.21 1.13 1.17 1.23 1.31 1.31 1.34 1.31 1.31 1.27 1.22 1.14 1.06 0.99 0.95 0.91 0.84 0.79 0.86 0.92 0.98 1.03 1.10 1.14 1.20 1.18 1.20 1.26 1.27
0.35 0.35 0.34 0.37 0.36 0.36 0.32 0.32 0.36 0.37 0.38 0.36 0.35 0.50 0.63 0.76 0.87 1.03 1.10 1.07 1.14 1.21 1.22 1.30 1.31 1.35 1.35 1.31 1.25 1.19 1.18 1.12 0.99 0.92 0.87 0.89 0.85 0.76 0.73 0.82 0.89 0.94 1.00 1.03 1.05 1.10 1.14 1.19 1.24
0.41 0.32 0.35 0.34 0.34 0.35 0.39 0.34 0.35 0.40 0.41 0.38 0.37 0.39 0.55 0.69 0.88 0.91 1.03 1.06 1.09 1.14 1.24 1.32 1.34 1.34 1.25 1.23 1.20 1.17 1.16 1.09 0.99 0.92 0.86 0.84 0.86 0.79 0.76 0.76 0.80 0.86 0.87 0.91 0.95 0.92 1.03 1.09 1.14
0.34 0.33 0.25 0.33 0.39 0.45 0.43 0.32 0.44 0.47 0.43 0.39 0.39 0.39 0.49 0.65 0.76 0.86 0.98 1.03 1.14 1.13 1.13 1.25 1.39 1.29 1.22 1.15 1.15 1.11 1.07 1.04 0.97 0.90 0.81 0.83 0.83 0.77 0.74 0.73 0.73 0.78 0.78 0.80 0.79 0.84 0.80 0.81 0.81
0.40 0.29 0.33 0.39 0.51 0.52 0.50 0.42 0.52 0.54 0.46 0.41 0.42 0.41 0.45 0.56 0.71 0.86 0.99 1.06 1.12 1.15 1.15 1.20 1.26 1.26 1.22 1.15 1.10 1.06 1.02 0.97 0.90 0.82 0.77 0.77 0.78 0.78 0.74 0.73 0.75 0.80 0.77 0.75 0.73 0.72 0.75 0.73 0.75
0.36 0.38 0.42 0.43 0.51 0.54 0.49 0.47 0.53 0.57 0.55 0.50 0.48 0.47 0.45 0.51 0.61 0.72 0.89 1.05 1.06 1.12 1.19 1.18 1.17 1.18 1.20 1.15 1.05 1.00 0.94 0.90 0.88 0.82 0.77 0.75 0.74 0.73 0.72 0.73 0.76 0.78 0.73 0.69 0.68 0.65 0.65 0.61 0.60
0.49 0.46 0.43 0.48 0.55 0.51 0.48 0.47 0.50 0.56 0.56 0.53 0.52 0.51 0.49 0.50 0.60 0.71 0.92 1.01 1.02 1.09 1.14 1.11 1.09 1.12 1.11 1.08 0.97 0.91 0.85 0.86 0.85 0.85 0.80 0.73 0.71 0.70 0.70 0.69 0.70 0.70 0.64 0.62 0.59 0.58 0.54 0.51 0.51
0.47 0.43 0.41 0.48 0.53 0.50 0.47 0.44 0.50 0.55 0.56 0.57 0.55 0.55 0.56 0.56 0.57 0.75 0.94 0.99 0.99 1.01 1.10 1.15 1.17 1.19 1.19 1.12 1.00 0.94 0.89 0.88 0.87 0.86 0.81 0.76 0.71 0.70 0.69 0.66 0.65 0.65 0.61 0.59 0.54 0.51 0.46 0.44 0.45
0.43 0.40 0.41 0.41 0.48 0.51 0.45 0.39 0.44 0.53 0.57 0.60 0.61 0.62 0.63 0.63 0.61 0.59 0.90 0.95 1.02 1.05 1.09 1.17 1.22 1.26 1.23 1.17 1.07 0.99 0.91 0.85 0.80 0.79 0.78 0.76 0.74 0.72 0.69 0.66 0.64 0.62 0.60 0.53 0.50 0.51 0.47 0.40 0.45
0.36 0.48 0.46 0.44 0.41 0.33 0.47 0.28 0.37 0.45 0.50 0.55 0.55 0.56 0.59 0.65 0.69 0.71 0.74 0.86 1.00 1.08 1.21 1.24 1.28 1.27 1.23 1.16 1.09 0.98 0.88 0.79 0.78 0.76 0.75 0.75 0.77 0.75 0.73 0.69 0.65 0.61 0.58 0.54 0.52 0.54 0.53 0.50 0.41
0.42 0.50 0.46 0.45 0.40 0.38 0.38 0.33 0.30 0.38 0.41 0.49 0.53 0.55 0.58 0.65 0.69 0.77 0.84 0.89 0.99 1.08 1.15 1.24 1.27 1.24 1.21 1.16 1.09 0.98 0.87 0.83 0.82 0.81 0.79 0.78 0.77 0.75 0.73 0.69 0.64 0.61 0.60 0.57 0.55 0.54 0.56 0.55 0.49
0.51 0.46 0.44 0.42 0.37 0.25 0.33 0.31 0.25 0.32 0.40 0.47 0.54 0.57 0.58 0.63 0.70 0.78 0.92 1.02 1.07 1.15 1.18 1.20 1.17 1.16 1.17 1.10 1.02 0.93 0.84 0.81 0.79 0.81 0.81 0.81 0.80 0.76 0.73 0.71 0.67 0.64 0.62 0.58 0.57 0.57 0.57 0.55 0.54
0.46 0.38 0.29 0.26 0.26 0.22 0.34 0.30 0.30 0.40 0.45 0.44 0.49 0.51 0.54 0.61 0.69 0.74 0.80 0.87 0.97 1.03 1.07 1.09 1.09 1.03 1.03 0.98 0.92 0.88 0.84 0.82 0.78 0.78 0.79 0.81 0.79 0.76 0.74 0.72 0.69 0.68 0.66 0.62 0.60 0.57 0.57 0.57 0.55
0.40 0.39 0.30 0.21 0.20 0.22 0.34 0.25 0.33 0.45 0.47 0.47 0.49 0.51 0.52 0.53 0.57 0.61 0.70 0.75 0.78 0.83 0.88 0.93 0.96 0.95 0.97 0.93 0.87 0.85 0.82 0.79 0.78 0.76 0.79 0.78 0.77 0.78 0.80 0.77 0.72 0.69 0.66 0.64 0.62 0.60 0.58 0.57 0.55
0.38 0.31 0.39 0.30 0.32 0.25 0.26 0.35 0.47 0.51 0.51 0.50 0.48 0.47 0.50 0.52 0.55 0.58 0.63 0.69 0.76 0.80 0.82 0.83 0.82 0.81 0.82 0.79 0.79 0.76 0.75 0.73 0.70 0.71 0.72 0.73 0.76 0.79 0.81 0.79 0.75 0.69 0.66 0.64 0.63 0.60 0.58 0.56 0.54
0.42 0.44 0.32 0.34 0.21 0.18 0.24 0.28 0.31 0.42 0.45 0.47 0.46 0.45 0.46 0.50 0.49 0.49 0.50 0.53 0.57 0.64 0.71 0.75 0.75 0.73 0.74 0.77 0.76 0.73 0.71 0.69 0.67 0.66 0.66 0.65 0.66 0.71 0.78 0.80 0.75 0.68 0.65 0.64 0.62 0.59 0.57 0.54 0.53
0.37 0.36 0.41 0.41 0.35 0.24 0.21 0.25 0.42 0.42 0.43 0.45 0.47 0.43 0.42 0.44 0.44 0.45 0.45 0.47 0.51 0.55 0.57 0.59 0.61 0.64 0.65 0.70 0.73 0.73 0.72 0.69 0.66 0.64 0.63 0.63 0.63 0.67 0.70 0.74 0.76 0.67 0.61 0.60 0.59 0.57 0.55 0.53 0.52
0.42 0.39 0.42 0.33 0.29 0.36 0.35 0.31 0.45 0.42 0.43 0.45 0.42 0.44 0.40 0.42 0.42 0.42 0.44 0.44 0.45 0.48 0.49 0.49 0.52 0.54 0.57 0.61 0.63 0.63 0.63 0.63 0.61 0.61 0.63 0.63 0.62 0.64 0.65 0.70 0.69 0.65 0.59 0.56 0.54 0.53 0.56 0.55 0.54
Wind_Speed
4 4 2 1 1 3 4 4 4 6 3 2 1 3 5 7 6 7 4 4 6 4 3 3 3 3 4 4 5 5 5 4 4 3 2 2 1 1 1 2 2 2 2 2 2 2 2 2 3
4 3 2 1 1 1 4 4 5 2 1 1 2 5 7 8 7 5 3 5 6 5 5 5 4 4 4 5 5 5 6 5 5 5 4 4 3 2 2 3 3 3 3 2 2 2 1 1 1
6 4 3 2 2 4 3 5 8 6 5 6 6 7 8 8 7 6 6 7 7 6 6 6 6 5 5 5 6 6 6 6 6 6 6 5 4 4 4 4 4 4 4 3 3 3 3 2 2
6 5 4 4 7 8 8 13 11 8 8 9 7 8 9 10 7 7 6 7 7 7 7 7 7 7 7 7 7 7 7 7 7 7 7 6 6 6 6 6 6 5 5 5 5 4 4 4 4
6 6 6 6 7 8 11 12 9 10 10 9 9 9 9 10 6 6 7 8 8 8 9 9 9 9 8 8 8 8 8 8 8 8 8 8 7 7 7 7 7 7 7 7 7 6 6 6 6
8 7 7 8 8 10 11 11 8 10 11 11 10 9 10 10 7 7 8 9 10 9 10 10 10 10 10 10 9 9 9 9 9 9 9 9 9 8 8 8 8 8 8 8 8 8 8 8 7
9 9 10 11 11 10 10 12 9 11 12 14 11 12 12 11 9 9 9 9 11 11 11 12 12 12 12 11 11 10 10 10 10 10 10 10 10 10 10 10 10 11 11 11 11 10 10 10 10
11 10 12 12 12 12 12 13 13 12 13 13 13 13 14 14 11 11 11 11 12 13 13 14 14 14 13 13 12 12 12 11 11 11 11 11 12 12 12 12 13 13 14 14 14 14 13 13 12
13 12 13 14 14 15 15 15 16 16 15 15 17 15 16 14 14 14 15 15 15 16 16 16 16 15 15 15 14 13 13 13 12 13 13 13 13 14 14 15 15 16 16 17 17 17 16 16 16
15 15 16 16 17 19 19 18 20 18 20 16 18 19 16 17 17 17 18 18 18 18 17 17 17 17 16 16 15 15 14 14 14 14 14 14 14 15 16 16 17 17 18 19 19 19 19 18 18
18 19 20 21 22 22 22 22 21 22 20 19 21 21 20 20 21 20 21 21 21 20 19 19 19 18 18 17 17 16 15 15 15 15 15 15 16 16 17 18 18 19 19 20 20 20 20 19 19
21 22 22 22 22 23 24 24 24 24 25 23 23 23 23 24 24 24 24 23 22 21 21 21 20 20 19 19 18 17 16 16 16 16 16 16 17 18 19 20 20 20 20 20 19 19 19 19 18
23 23 25 25 25 24 25 25 27 27 26 27 26 26 27 27 27 27 26 24 23 23 22 22 22 21 20 19 19 18 17 17 17 17 17 18 18 19 19 20 20 20 20 19 18 18 18 18 18
24 27 28 27 28 28 30 30 28 31 32 31 28 29 29 30 30 29 28 26 26 24 24 24 24 23 22 21 20 20 19 18 18 18 18 19 19 19 19 19 19 19 19 18 18 18 18 18 18
27 28 28 27 26 27 29 31 30 31 28 28 29 28 30 33 31 30 29 27 26 25 24 26 25 24 23 22 21 20 20 19 19 19 20 19 20 19 19 18 18 18 17 17 16 16 16 17 17
28 28 27 25 26 26 25 31 31 31 30 29 28 28 28 29 30 31 30 28 27 24 24 24 26 25 24 23 22 22 21 21 21 21 21 21 20 20 19 18 18 17 17 16 16 17 17 17 17
27 28 28 29 24 26 25 30 28 27 24 26 27 26 24 26 28 29 29 28 27 25 23 22 25 25 24 25 24 24 23 23 23 22 22 22 21 21 19 19 18 17 17 17 17 17 17 17 17
26 27 27 27 26 28 27 27 26 25 22 22 23 23 24 25 27 29 29 29 27 25 23 20 23 25 25 25 26 26 25 25 24 23 23 23 22 21 20 20 19 19 18 17 16 16 16 16 17
24 25 26 25 26 25 26 26 27 25 24 24 24 24 26 25 28 30 28 28 26 25 23 22 21 21 22 24 25 27 27 27 26 25 25 25 24 23 22 22 21 20 18 17 16 15 15 15 16
24 25 26 25 23 23 25 25 23 21 21 21 22 22 24 26 27 26 27 27 27 26 24 24 24 23 22 22 23 24 25 27 27 27 26 26 25 24 24 23 22 21 20 18 17 17 16 16 16
24 24 22 22 21 21 23 24 19 18 19 19 20 21 22 22 22 24 26 28 27 27 25 23 23 23 22 22 21 22 23 24 26 27 28 28 27 26 26 24 23 22 21 20 19 19 18 17 17
21 19 19 19 19 20 17 23 21 21 16 16 15 16 16 18 20 19 23 24 26 25 25 23 23 22 22 22 22 23 24 25 27 28 28 29 30 29 28 27 26 25 24 23 22 21 21 20 20
18 15 16 17 18 18 17 17 19 16 15 16 16 15 15 15 13 14 17 20 23 24 24 24 23 23 23 24 24 24 25 26 27 28 29 30 31 31 30 29 29 28 27 26 25 24 23 23 23
17 15 14 15 15 18 17 16 18 16 11 12 13 12 11 13 10 9 11 15 19 22 22 23 23 25 25 25 26 26 27 26 27 28 29 30 31 32 32 32 31 30 29 29 28 27 26 25 25
15 12 13 14 14 17 15 14 18 11 10 10 11 11 11 11 12 13 13 13 15 18 20 23 24 25 26 26 27 28 29 29 29 30 31 32 33 33 34 33 33 33 32 31 31 30 29 28 28
18 16 15 16 17 18 18 17 15 13 12 11 12 13 13 12 12 12 13 15 17 20 22 24 27 28 29 28 29 29 30 31 33 33 32 31 32 33 34 34 34 34 34 33 32 32 31 30 29
20 21 20 18 19 19 20 17 16 16 15 14 14 14 15 16 16 14 15 17 19 22 24 24 26 26 28 30 30 31 32 34 34 35 34 33 32 32 33 34 35 35 35 34 34 33 33 32 31
26 20 18 19 18 20 21 20 18 17 17 17 17 18 17 18 18 18 19 20 21 22 23 25 28 29 30 32 34 35 36 36 37 37 37 36 34 34 34 35 35 36 35 35 34 33 33 32 31
21 22 21 21 23 20 20 22 20 17 17 19 23 23 22 22 23 23 23 23 23 24 25 27 28 31 33 34 35 36 37 38 39 39 40 39 39 37 36 36 36 36 36 35 34 33 31 31 30
24 24 23 23 25 25 24 24 19 18 18 21 24 24 24 24 26 26 26 27 26 26 27 27 28 29 32 33 35 36 38 39 39 40 41 42 41 41 39 38 37 37 37 37 36 34 33 31 30
Wind_Direction
290 288 272 289 3 32 339 321 303 291 305 327 10 285 290 306 291 299 302 207 190 202 212 232 230 230 234 235 228 227 227 226 225 224 226 240 288 315 325 338 349 348 348 354 0 9 22 36 53
281 279 246 236 190 334 317 332 336 341 238 198 314 302 309 294 292 299 257 218 216 226 239 240 241 247 246 242 234 230 231 234 235 240 242 249 264 283 294 303 311 316 314 316 316 315 316 323 356
274 258 236 222 224 222 274 327 313 301 262 289 301 313 301 286 273 261 249 224 230 243 247 247 250 251 250 243 238 236 235 236 238 242 246 249 260 272 282 287 293 296 296 296 294 291 287 279 271
266 259 257 244 249 262 275 299 282 276 290 304 296 311 303 291 265 260 228 227 233 248 251 250 253 252 251 246 243 242 239 240 242 243 247 251 258 269 277 280 284 287 286 286 284 281 279 273 268
262 258 258 264 262 273 287 298 270 277 288 287 287 294 298 286 275 229 237 236 243 253 253 255 255 253 252 248 245 245 244 245 245 247 251 255 259 267 274 278 280 282 281 280 279 275 274 271 267
261 255 266 261 265 282 294 312 289 299 290 281 296 299 288 272 258 242 246 247 253 255 256 257 254 253 252 250 248 248 247 246 249 249 253 256 260 266 272 276 277 277 278 278 278 274 271 269 267
252 257 256 265 267 276 298 308 315 300 298 298 284 291 286 267 259 250 250 253 256 260 260 259 256 254 251 250 250 250 249 251 250 252 256 259 263 267 272 276 276 276 275 275 274 273 271 268 266
258 258 262 262 264 269 296 302 297 307 293 294 289 283 277 260 254 252 255 262 262 264 265 261 256 254 253 251 251 251 250 252 253 255 258 261 265 268 273 276 277 277 275 274 272 270 268 266 264
259 264 261 265 265 272 288 296 292 291 293 290 293 284 279 255 255 258 261 268 267 266 265 261 256 254 253 252 252 251 252 253 255 257 260 264 267 270 274 277 279 279 277 274 271 269 266 264 263
258 259 261 262 270 277 281 287 287 289 290 289 288 287 264 260 256 258 260 266 266 265 262 260 256 254 252 251 252 253 254 256 258 259 262 266 270 271 274 278 281 281 279 275 271 268 266 264 262
264 263 267 272 274 276 279 281 283 283 282 282 283 277 263 261 258 259 264 265 266 261 261 259 255 254 252 252 251 253 254 257 260 261 264 268 272 274 276 278 280 282 281 277 273 267 263 261 261
271 269 271 275 278 281 280 281 282 278 279 280 278 271 267 262 261 261 263 264 261 259 259 255 254 253 253 253 252 251 254 257 262 265 267 270 275 277 278 278 278 280 282 278 272 266 262 259 259
267 273 277 280 281 281 280 279 277 277 282 280 274 269 265 264 264 266 264 262 261 260 258 254 251 251 252 252 251 250 252 257 263 266 269 271 276 281 280 279 279 280 282 278 270 266 262 257 256
273 278 278 278 281 280 277 277 278 282 279 278 274 266 264 263 263 264 263 259 258 259 258 253 250 250 249 252 251 251 252 257 263 268 272 274 277 280 283 280 281 281 283 277 269 264 260 258 257
276 278 279 278 278 277 280 281 279 282 280 276 274 268 265 263 260 260 258 256 257 258 256 251 249 248 249 248 250 251 252 256 264 269 273 275 278 279 280 279 282 283 283 277 269 265 260 257 256
277 277 280 276 282 280 276 282 282 284 278 276 276 273 266 263 257 256 256 257 254 255 254 252 245 246 246 247 249 251 253 258 265 270 272 274 277 278 277 277 279 282 282 276 271 264 261 257 256
274 274 275 281 277 279 275 283 285 293 285 275 279 276 268 264 258 255 254 252 251 254 255 250 242 243 245 247 249 254 257 261 266 270 272 274 276 276 274 275 277 279 280 277 271 265 261 259 257
269 271 273 279 280 283 279 279 285 288 291 284 280 276 276 268 262 255 251 249 249 250 250 246 244 245 247 249 250 255 258 261 265 269 270 272 274 273 272 272 275 276 277 273 270 265 262 259 257
272 274 275 277 279 279 281 282 285 284 285 284 285 282 277 273 266 256 252 248 248 248 242 243 244 245 246 249 252 255 258 261 265 268 269 271 271 271 272 272 274 274 273 270 267 263 259 259 257
266 270 274 278 276 282 286 284 284 283 282 282 285 286 286 283 270 259 248 245 246 246 242 243 244 247 252 254 258 260 261 263 264 266 268 269 270 270 270 270 270 271 270 269 266 262 261 261 255
266 267 273 274 280 284 288 285 282 283 283 282 284 283 289 278 279 258 247 246 245 244 245 245 247 248 253 256 259 263 266 267 266 266 267 268 268 269 267 267 267 267 267 266 265 261 259 259 258
266 268 273 283 288 282 286 285 279 283 275 283 289 294 295 290 280 266 251 248 247 248 247 251 250 253 257 259 261 264 268 270 270 269 269 268 267 267 266 265 264 264 264 263 263 262 259 258 256
268 271 275 280 285 286 280 285 287 282 279 277 282 288 293 298 294 269 258 247 244 245 247 250 253 257 262 265 266 268 271 272 272 272 270 270 267 265 264 263 263 262 263 262 261 261 259 258 258
263 273 283 284 284 283 272 267 291 294 277 277 282 292 296 293 291 281 261 247 247 247 249 252 257 262 266 268 268 269 271 272 273 274 272 271 268 265 263 262 262 261 261 261 261 260 260 259 260
258 265 275 280 275 273 291 280 279 281 277 278 277 287 293 293 289 276 264 252 246 248 251 257 261 266 268 268 270 272 273 271 273 276 274 271 268 266 263 262 261 261 260 260 260 260 260 260 260
250 250 256 265 271 280 284 275 273 266 267 271 278 277 281 287 290 285 273 262 256 254 257 263 266 270 269 270 272 274 274 273 276 276 276 274 270 266 263 262 261 260 259 259 259 260 260 261 261
254 256 257 267 276 280 274 276 270 265 273 275 278 284 282 281 285 282 277 272 268 267 267 268 271 273 270 273 274 274 274 276 276 276 276 274 272 269 266 263 262 260 259 258 258 259 260 260 261
247 254 258 268 267 270 273 269 266 261 266 274 280 287 284 277 279 278 275 274 274 274 272 271 273 273 273 274 274 276 276 276 277 277 274 273 271 269 267 263 261 259 258 256 257 258 258 259 259
256 253 260 259 261 267 271 270 265 259 267 270 275 282 280 273 276 279 277 277 276 276 276 278 278 276 276 276 276 276 276 278 278 275 273 271 269 267 265 263 260 258 257 255 255 256 256 258 259
260 259 254 258 263 263 262 269 260 269 275 280 280 281 280 276 278 278 278 279 278 276 280 281 283 283 282 279 278 278 278 278 277 277 274 270 268 266 263 262 260 257 255 254 253 254 254 257 258